Private Wetterstation Wechselburg
Wetterdaten: Montag, 25.03.2013
Datum Zeit Temp. +2m Bodentemp. Temp.+5cm Temp. Wind Windchill X Diff Temp. Feuchte +2m Feuchte +5cm Sonnenschein Luftdruck Regen Wind Richtung Richtung Sonnenschein UV Taupunkt Windchill Windben
25.03.2013 00:00 -5,7 C 6,9 C -5,9 C -6,8 C -10,2 C 0,0 C 69 % 74 % 0 % 1021,3 hPa 0,0 l/m 7,7 km/h (2 Bft) O-NO 67 0 min 0,0 UV-I -10,5 C -14,6 C 20,0 km/h (4 Bft)
25.03.2013 00:05 -5,7 C 6,9 C -5,9 C -7,2 C -10,2 C 0,0 C 69 % 74 % 0 % 1021,3 hPa 0,0 l/m 7,9 km/h (2 Bft) O-SO 112 0 min 0,0 UV-I -10,5 C -14,7 C 11,4 km/h (2 Bft)
25.03.2013 00:10 -5,7 C 6,9 C -5,9 C -7,2 C -10,2 C 0,0 C 69 % 74 % 0 % 1021,3 hPa 0,0 l/m 7,9 km/h (2 Bft) O-NO 67 0 min 0,0 UV-I -10,5 C -14,7 C 6,9 km/h (2 Bft)
25.03.2013 00:15 -5,7 C 6,9 C -6,0 C -7,1 C -10,0 C 0,0 C 69 % 74 % 0 % 1021,3 hPa 0,0 l/m 6,8 km/h (2 Bft) O-NO 67 0 min 0,0 UV-I -10,5 C -13,9 C 10,1 km/h (2 Bft)
25.03.2013 00:20 -5,7 C 6,9 C -6,0 C -7,1 C -10,0 C 0,0 C 70 % 74 % 0 % 1021,3 hPa 0,0 l/m 6,4 km/h (2 Bft) O-NO 67 0 min 0,0 UV-I -10,3 C -13,7 C 7,7 km/h (2 Bft)
25.03.2013 00:25 -5,7 C 6,9 C -6,1 C -7,2 C -10,1 C 0,0 C 70 % 74 % 0 % 1021,3 hPa 0,0 l/m 6,6 km/h (2 Bft) O 90 0 min 0,0 UV-I -10,3 C -14,0 C 14,3 km/h (3 Bft)
25.03.2013 00:30 -5,9 C 6,9 C -6,1 C -7,3 C -10,1 C 0,0 C 70 % 74 % 0 % 1021,3 hPa 0,0 l/m 6,8 km/h (2 Bft) O-NO 67 0 min 0,0 UV-I -10,5 C -14,1 C 9,5 km/h (2 Bft)
25.03.2013 00:35 -5,9 C 6,9 C -6,1 C -7,4 C -10,5 C 0,0 C 70 % 74 % 0 % 1021,3 hPa 0,0 l/m 7,6 km/h (2 Bft) O 90 0 min 0,0 UV-I -10,5 C -14,9 C 15,9 km/h (3 Bft)
25.03.2013 00:41 -5,9 C 6,9 C -6,1 C -7,5 C -10,6 C 0,0 C 70 % 74 % 0 % 1021,3 hPa 0,0 l/m 7,6 km/h (2 Bft) N 0 0 min 0,0 UV-I -10,5 C -15,0 C 6,1 km/h (2 Bft)
25.03.2013 01:00 -6,0 C 6,9 C -6,1 C -7,1 C -10,7 C 0,0 C 70 % 75 % 0 % 1021,3 hPa 0,0 l/m 8,0 km/h (2 Bft) O 90 0 min 0,0 UV-I -10,6 C -15,3 C 6,4 km/h (2 Bft)
25.03.2013 01:05 -5,9 C 6,9 C -6,1 C -7,1 C -10,8 C 0,0 C 71 % 75 % 0 % 1021,3 hPa 0,0 l/m 7,9 km/h (2 Bft) O-NO 67 0 min 0,0 UV-I -10,3 C -15,4 C 7,2 km/h (2 Bft)
25.03.2013 01:10 -6,1 C 6,9 C -6,1 C -7,7 C -10,8 C 0,0 C 71 % 75 % 0 % 1021,3 hPa 0,0 l/m 7,7 km/h (2 Bft) O-NO 67 0 min 0,0 UV-I -10,5 C -15,3 C 4,2 km/h (1 Bft)
25.03.2013 01:15 -6,1 C 6,9 C -6,3 C -7,5 C -10,2 C 0,0 C 71 % 75 % 0 % 1020,4 hPa 0,0 l/m 6,3 km/h (2 Bft) O-NO 67 0 min 0,0 UV-I -10,5 C -13,9 C 7,1 km/h (2 Bft)
25.03.2013 01:20 -6,2 C 6,9 C -6,3 C -7,5 C -10,1 C 0,0 C 71 % 76 % 0 % 1020,4 hPa 0,0 l/m 5,8 km/h (2 Bft) O-NO 67 0 min 0,0 UV-I -10,6 C -13,5 C 9,0 km/h (2 Bft)
25.03.2013 01:25 -6,1 C 6,9 C -6,4 C -7,5 C -10,4 C 0,0 C 72 % 76 % 0 % 1020,4 hPa 0,0 l/m 6,4 km/h (2 Bft) O-NO 67 0 min 0,0 UV-I -10,3 C -14,2 C 4,7 km/h (1 Bft)
25.03.2013 01:30 -6,1 C 6,9 C -6,3 C -7,6 C -10,6 C 0,0 C 72 % 76 % 0 % 1020,4 hPa 0,0 l/m 6,8 km/h (2 Bft) O 90 0 min 0,0 UV-I -10,3 C -14,6 C 8,9 km/h (2 Bft)
25.03.2013 01:35 -6,1 C 6,9 C -6,4 C -7,6 C -10,6 C 0,0 C 72 % 76 % 0 % 1020,5 hPa 0,0 l/m 6,8 km/h (2 Bft) O-NO 67 0 min 0,0 UV-I -10,3 C -14,6 C 6,1 km/h (2 Bft)
25.03.2013 01:40 -6,3 C 6,9 C -6,5 C -7,6 C -10,2 C 0,0 C 72 % 76 % 0 % 1020,5 hPa 0,0 l/m 5,8 km/h (2 Bft) NO 45 0 min 0,0 UV-I -10,5 C -13,6 C 7,7 km/h (2 Bft)
25.03.2013 01:45 -6,3 C 6,9 C -6,5 C -7,7 C -10,5 C 0,0 C 73 % 77 % 0 % 1020,5 hPa 0,0 l/m 6,3 km/h (2 Bft) NO 45 0 min 0,0 UV-I -10,3 C -14,3 C 7,1 km/h (2 Bft)
25.03.2013 01:50 -6,3 C 6,9 C -6,5 C -7,8 C -10,7 C 0,0 C 73 % 77 % 0 % 1020,5 hPa 0,0 l/m 7,1 km/h (2 Bft) O-NO 67 0 min 0,0 UV-I -10,3 C -14,9 C 11,6 km/h (2 Bft)
25.03.2013 01:55 -6,3 C 6,9 C -6,5 C -7,8 C -10,7 C 0,0 C 73 % 77 % 0 % 1020,9 hPa 0,0 l/m 6,6 km/h (2 Bft) O-NO 67 0 min 0,0 UV-I -10,3 C -14,6 C 5,8 km/h (2 Bft)
25.03.2013 02:00 -6,4 C 6,9 C -6,5 C -7,8 C -10,7 C 0,0 C 73 % 77 % 0 % 1020,9 hPa 0,0 l/m 6,8 km/h (2 Bft) O 90 0 min 0,0 UV-I -10,4 C -14,7 C 10,6 km/h (2 Bft)
25.03.2013 02:05 -6,4 C 6,9 C -6,5 C -7,9 C -10,8 C 0,0 C 73 % 77 % 0 % 1020,9 hPa 0,0 l/m 7,2 km/h (2 Bft) NO 45 0 min 0,0 UV-I -10,4 C -15,1 C 10,0 km/h (2 Bft)
25.03.2013 02:10 -6,4 C 6,9 C -6,5 C -7,9 C -10,9 C 0,0 C 73 % 77 % 0 % 1020,9 hPa 0,0 l/m 7,6 km/h (2 Bft) O-NO 67 0 min 0,0 UV-I -10,4 C -15,4 C 8,9 km/h (2 Bft)
25.03.2013 02:15 -6,4 C 6,9 C -6,5 C -7,5 C -11,0 C 0,0 C 73 % 77 % 0 % 1020,3 hPa 0,0 l/m 7,7 km/h (2 Bft) O 90 0 min 0,0 UV-I -10,4 C -15,5 C 13,0 km/h (3 Bft)
25.03.2013 02:20 -6,4 C 6,9 C -6,5 C -7,9 C -10,9 C 0,0 C 73 % 77 % 0 % 1020,3 hPa 0,0 l/m 7,6 km/h (2 Bft) O-NO 67 0 min 0,0 UV-I -10,4 C -15,4 C 6,6 km/h (2 Bft)
25.03.2013 02:25 -6,5 C 6,9 C -6,5 C -7,9 C -10,7 C 0,0 C 74 % 78 % 0 % 1020,3 hPa 0,0 l/m 7,1 km/h (2 Bft) O-NO 67 0 min 0,0 UV-I -10,3 C -14,9 C 7,7 km/h (2 Bft)
25.03.2013 02:30 -6,5 C 6,9 C -6,5 C -7,8 C -10,5 C 0,0 C 74 % 78 % 0 % 1020,3 hPa 0,0 l/m 6,3 km/h (2 Bft) O-NO 67 0 min 0,0 UV-I -10,3 C -14,3 C 7,7 km/h (2 Bft)
25.03.2013 02:35 -6,5 C 6,9 C -6,5 C -7,9 C -10,6 C 0,0 C 74 % 78 % 0 % 1019,9 hPa 0,0 l/m 6,4 km/h (2 Bft) O 90 0 min 0,0 UV-I -10,3 C -14,4 C 8,0 km/h (2 Bft)
25.03.2013 02:40 -6,5 C 6,9 C -6,5 C -7,8 C -10,3 C 0,0 C 74 % 78 % 0 % 1019,9 hPa 0,0 l/m 6,0 km/h (2 Bft) O-NO 67 0 min 0,0 UV-I -10,3 C -13,9 C 10,5 km/h (2 Bft)
25.03.2013 02:45 -6,5 C 6,9 C -6,5 C -7,8 C -10,4 C 0,0 C 74 % 78 % 0 % 1019,9 hPa 0,0 l/m 6,1 km/h (2 Bft) O-NO 67 0 min 0,0 UV-I -10,3 C -14,0 C 5,6 km/h (1 Bft)
25.03.2013 02:50 -6,5 C 6,9 C -6,5 C -7,9 C -10,7 C 0,0 C 74 % 78 % 0 % 1019,9 hPa 0,0 l/m 6,8 km/h (2 Bft) O-NO 67 0 min 0,0 UV-I -10,3 C -14,7 C 8,5 km/h (2 Bft)
25.03.2013 02:55 -6,5 C 6,9 C -6,5 C -7,9 C -10,8 C 0,0 C 74 % 78 % 0 % 1019,7 hPa 0,0 l/m 6,9 km/h (2 Bft) O-NO 67 0 min 0,0 UV-I -10,3 C -14,9 C 8,2 km/h (2 Bft)
25.03.2013 03:00 -6,5 C 6,9 C -6,5 C -7,5 C -11,0 C 0,0 C 74 % 78 % 0 % 1019,7 hPa 0,0 l/m 7,7 km/h (2 Bft) NW 315 0 min 0,0 UV-I -10,3 C -15,5 C 6,0 km/h (2 Bft)
25.03.2013 03:05 -6,5 C 6,9 C -6,5 C -8,0 C -11,0 C 0,0 C 74 % 78 % 0 % 1019,7 hPa 0,0 l/m 7,7 km/h (2 Bft) NO 45 0 min 0,0 UV-I -10,3 C -15,5 C 17,9 km/h (3 Bft)
25.03.2013 03:10 -6,5 C 6,9 C -6,5 C -7,9 C -10,8 C 0,0 C 74 % 78 % 0 % 1019,7 hPa 0,0 l/m 7,2 km/h (2 Bft) O-SO 112 0 min 0,0 UV-I -10,3 C -15,1 C 8,0 km/h (2 Bft)
25.03.2013 03:15 -6,5 C 6,9 C -6,5 C -8,0 C -10,9 C 0,0 C 74 % 78 % 0 % 1019,8 hPa 0,0 l/m 7,6 km/h (2 Bft) O 90 0 min 0,0 UV-I -10,3 C -15,4 C 5,6 km/h (1 Bft)
25.03.2013 03:20 -6,5 C 6,9 C -6,5 C -8,0 C -10,9 C 0,0 C 74 % 78 % 0 % 1019,8 hPa 0,0 l/m 7,4 km/h (2 Bft) O-NO 67 0 min 0,0 UV-I -10,3 C -15,3 C 7,1 km/h (2 Bft)
25.03.2013 03:25 -6,5 C 6,9 C -6,5 C -7,9 C -10,7 C 0,0 C 75 % 78 % 0 % 1019,8 hPa 0,0 l/m 6,9 km/h (2 Bft) O-NO 67 0 min 0,0 UV-I -10,2 C -14,8 C 7,7 km/h (2 Bft)
25.03.2013 03:30 -6,5 C 6,9 C -6,5 C -7,9 C -10,7 C 0,0 C 75 % 78 % 0 % 1019,8 hPa 0,0 l/m 6,8 km/h (2 Bft) O-NO 67 0 min 0,0 UV-I -10,2 C -14,7 C 7,7 km/h (2 Bft)
25.03.2013 03:35 -6,5 C 6,9 C -6,5 C -7,5 C -11,0 C 0,0 C 75 % 78 % 0 % 1019,6 hPa 0,0 l/m 7,7 km/h (2 Bft) O-NO 67 0 min 0,0 UV-I -10,2 C -15,5 C 15,0 km/h (3 Bft)
25.03.2013 03:40 -6,5 C 6,9 C -6,5 C -7,6 C -11,1 C 0,0 C 75 % 78 % 0 % 1019,6 hPa 0,0 l/m 8,0 km/h (2 Bft) O-NO 67 0 min 0,0 UV-I -10,2 C -15,8 C 10,9 km/h (2 Bft)
25.03.2013 03:45 -6,5 C 6,9 C -6,5 C -7,6 C -11,2 C 0,0 C 75 % 78 % 0 % 1019,6 hPa 0,0 l/m 8,4 km/h (2 Bft) O-NO 67 0 min 0,0 UV-I -10,2 C -16,1 C 8,2 km/h (2 Bft)
25.03.2013 03:50 -6,5 C 6,9 C -6,5 C -8,1 C -11,2 C 0,0 C 75 % 78 % 0 % 1019,6 hPa 0,0 l/m 8,2 km/h (2 Bft) O-NO 67 0 min 0,0 UV-I -10,2 C -16,0 C 11,4 km/h (2 Bft)
25.03.2013 03:55 -6,6 C 6,9 C -6,5 C -8,0 C -10,9 C 0,0 C 75 % 78 % 0 % 1019,6 hPa 0,0 l/m 7,4 km/h (2 Bft) O 90 0 min 0,0 UV-I -10,3 C -15,3 C 5,8 km/h (2 Bft)
25.03.2013 04:00 -6,5 C 6,9 C -6,5 C -8,0 C -10,9 C 0,0 C 75 % 78 % 0 % 1019,6 hPa 0,0 l/m 7,4 km/h (2 Bft) O-NO 67 0 min 0,0 UV-I -10,2 C -15,3 C 8,9 km/h (2 Bft)
25.03.2013 04:05 -6,5 C 6,9 C -6,5 C -8,0 C -10,9 C 0,0 C 75 % 78 % 0 % 1019,6 hPa 0,0 l/m 7,4 km/h (2 Bft) O-NO 67 0 min 0,0 UV-I -10,2 C -15,3 C 8,2 km/h (2 Bft)
25.03.2013 04:10 -6,6 C 6,9 C -6,5 C -8,0 C -10,8 C 0,0 C 75 % 78 % 0 % 1019,6 hPa 0,0 l/m 7,2 km/h (2 Bft) O-SO 112 0 min 0,0 UV-I -10,3 C -15,1 C 8,4 km/h (2 Bft)
25.03.2013 04:15 -6,5 C 6,9 C -6,5 C -7,9 C -10,7 C 0,0 C 75 % 78 % 0 % 1019,6 hPa 0,0 l/m 7,1 km/h (2 Bft) O-NO 67 0 min 0,0 UV-I -10,2 C -14,9 C 9,5 km/h (2 Bft)
25.03.2013 04:20 -6,5 C 6,9 C -6,5 C -8,0 C -10,9 C 0,0 C 75 % 78 % 0 % 1019,6 hPa 0,0 l/m 7,6 km/h (2 Bft) O 90 0 min 0,0 UV-I -10,2 C -15,4 C 7,7 km/h (2 Bft)
25.03.2013 04:25 -6,6 C 6,9 C -6,5 C -7,9 C -10,6 C 0,0 C 75 % 78 % 0 % 1019,6 hPa 0,0 l/m 7,1 km/h (2 Bft) O-NO 67 0 min 0,0 UV-I -10,3 C -14,8 C 6,9 km/h (2 Bft)
25.03.2013 04:30 -6,5 C 6,9 C -6,5 C -7,9 C -10,6 C 0,0 C 75 % 78 % 0 % 1019,6 hPa 0,0 l/m 6,9 km/h (2 Bft) O-SO 112 0 min 0,0 UV-I -10,2 C -14,7 C 9,3 km/h (2 Bft)
25.03.2013 04:35 -6,5 C 6,9 C -6,5 C -7,9 C -10,6 C 0,0 C 75 % 78 % 0 % 1019,6 hPa 0,0 l/m 6,9 km/h (2 Bft) N-NO 22 0 min 0,0 UV-I -10,2 C -14,7 C 6,0 km/h (2 Bft)
25.03.2013 04:40 -6,5 C 6,9 C -6,5 C -7,8 C -10,4 C 0,0 C 75 % 78 % 0 % 1019,6 hPa 0,0 l/m 6,8 km/h (2 Bft) O-NO 67 0 min 0,0 UV-I -10,2 C -14,4 C 6,6 km/h (2 Bft)
25.03.2013 04:45 -6,5 C 6,9 C -6,5 C -7,9 C -10,6 C 0,0 C 75 % 78 % 0 % 1019,6 hPa 0,0 l/m 7,1 km/h (2 Bft) O-NO 67 0 min 0,0 UV-I -10,2 C -14,8 C 12,1 km/h (2 Bft)
25.03.2013 04:50 -6,5 C 6,9 C -6,5 C -7,9 C -10,7 C 0,0 C 75 % 78 % 0 % 1019,6 hPa 0,0 l/m 7,2 km/h (2 Bft) O-NO 67 0 min 0,0 UV-I -10,2 C -14,9 C 7,1 km/h (2 Bft)
25.03.2013 04:55 -6,5 C 6,9 C -6,5 C -7,9 C -10,6 C 0,0 C 75 % 78 % 0 % 1019,4 hPa 0,0 l/m 7,1 km/h (2 Bft) O 90 0 min 0,0 UV-I -10,2 C -14,8 C 9,7 km/h (2 Bft)
25.03.2013 05:00 -6,5 C 6,9 C -6,5 C -7,9 C -10,6 C 0,0 C 75 % 78 % 0 % 1019,4 hPa 0,0 l/m 6,9 km/h (2 Bft) O 90 0 min 0,0 UV-I -10,2 C -14,7 C 6,3 km/h (2 Bft)
25.03.2013 05:05 -6,5 C 6,9 C -6,5 C -7,9 C -10,7 C 0,0 C 74 % 78 % 0 % 1019,4 hPa 0,0 l/m 7,2 km/h (2 Bft) O-NO 67 0 min 0,0 UV-I -10,3 C -14,9 C 6,8 km/h (2 Bft)
25.03.2013 05:10 -6,5 C 6,9 C -6,5 C -7,5 C -11,1 C 0,0 C 74 % 78 % 0 % 1019,4 hPa 0,0 l/m 8,2 km/h (2 Bft) O-NO 67 0 min 0,0 UV-I -10,3 C -15,9 C 12,7 km/h (3 Bft)
25.03.2013 05:15 -6,5 C 6,9 C -6,5 C -7,6 C -11,3 C 0,0 C 74 % 78 % 0 % 1019,4 hPa 0,0 l/m 9,0 km/h (2 Bft) O-NO 67 0 min 0,0 UV-I -10,3 C -16,4 C 19,2 km/h (3 Bft)
25.03.2013 05:20 -6,5 C 6,9 C -6,5 C -8,1 C -11,3 C 0,0 C 74 % 78 % 0 % 1019,4 hPa 0,0 l/m 8,9 km/h (2 Bft) O-NO 67 0 min 0,0 UV-I -10,3 C -16,4 C 15,1 km/h (3 Bft)
25.03.2013 05:25 -6,5 C 6,9 C -6,5 C -7,6 C -10,9 C 0,0 C 74 % 78 % 0 % 1019,4 hPa 0,0 l/m 7,9 km/h (2 Bft) O 90 0 min 0,0 UV-I -10,3 C -15,5 C 10,0 km/h (2 Bft)
25.03.2013 05:30 -6,5 C 6,9 C -6,5 C -7,9 C -10,7 C 0,0 C 74 % 78 % 0 % 1019,4 hPa 0,0 l/m 7,2 km/h (2 Bft) O-NO 67 0 min 0,0 UV-I -10,3 C -14,9 C 5,3 km/h (1 Bft)
25.03.2013 05:35 -6,5 C 6,9 C -6,4 C -7,9 C -10,6 C 0,0 C 74 % 78 % 0 % 1019,2 hPa 0,0 l/m 7,1 km/h (2 Bft) O-NO 67 0 min 0,0 UV-I -10,3 C -14,8 C 6,8 km/h (2 Bft)
25.03.2013 05:40 -6,5 C 6,9 C -6,4 C -7,9 C -10,6 C 0,0 C 74 % 77 % 0 % 1019,2 hPa 0,0 l/m 6,9 km/h (2 Bft) O-NO 67 0 min 0,0 UV-I -10,3 C -14,7 C 9,5 km/h (2 Bft)
25.03.2013 05:45 -6,5 C 6,9 C -6,4 C -7,9 C -10,7 C 0,0 C 74 % 77 % 0 % 1019,2 hPa 0,0 l/m 7,6 km/h (2 Bft) O 90 0 min 0,0 UV-I -10,3 C -15,1 C 10,5 km/h (2 Bft)
25.03.2013 05:50 -6,5 C 6,9 C -6,4 C -7,5 C -10,8 C 0,0 C 74 % 77 % 0 % 1019,2 hPa 0,0 l/m 7,7 km/h (2 Bft) O 90 0 min 0,0 UV-I -10,3 C -15,3 C 14,2 km/h (3 Bft)
25.03.2013 05:55 -6,5 C 6,9 C -6,4 C -7,9 C -10,6 C 0,0 C 74 % 77 % 0 % 1019,2 hPa 0,0 l/m 7,2 km/h (2 Bft) O 90 0 min 0,0 UV-I -10,3 C -14,8 C 7,2 km/h (2 Bft)
25.03.2013 06:00 -6,5 C 6,9 C -6,4 C -7,9 C -10,6 C 0,0 C 74 % 77 % 0 % 1019,2 hPa 0,0 l/m 7,4 km/h (2 Bft) O-NO 67 0 min 0,0 UV-I -10,3 C -14,9 C 11,9 km/h (2 Bft)
25.03.2013 06:05 -6,5 C 6,9 C -6,4 C -7,5 C -10,9 C 0,0 C 73 % 77 % 0 % 1019,2 hPa 0,0 l/m 8,4 km/h (2 Bft) O-NO 67 0 min 0,0 UV-I -10,5 C -15,7 C 7,2 km/h (2 Bft)
25.03.2013 06:10 -6,5 C 6,9 C -6,4 C -8,0 C -10,9 C 0,0 C 73 % 77 % 0 % 1019,2 hPa 0,0 l/m 8,7 km/h (2 Bft) O 90 0 min 0,0 UV-I -10,5 C -15,8 C 8,5 km/h (2 Bft)
25.03.2013 06:15 -6,5 C 6,9 C -6,3 C -7,9 C -10,6 C 0,0 C 73 % 77 % 0 % 1019,2 hPa 0,0 l/m 7,6 km/h (2 Bft) O-NO 67 0 min 0,0 UV-I -10,5 C -15,0 C 7,2 km/h (2 Bft)
25.03.2013 06:20 -6,5 C 6,9 C -6,3 C -7,5 C -10,9 C 0,0 C 73 % 77 % 0 % 1019,2 hPa 0,0 l/m 8,5 km/h (2 Bft) O-NO 67 0 min 0,0 UV-I -10,5 C -15,8 C 12,6 km/h (3 Bft)
25.03.2013 06:25 -6,5 C 6,9 C -6,3 C -7,5 C -11,3 C 0,0 C 73 % 76 % 0 % 1019,2 hPa 0,0 l/m 9,8 km/h (2 Bft) O-SO 112 0 min 0,0 UV-I -10,5 C -16,7 C 13,4 km/h (3 Bft)
25.03.2013 06:30 -6,3 C 6,9 C -6,3 C -8,0 C -11,3 C 0,0 C 73 % 76 % 0 % 1019,2 hPa 0,0 l/m 10,0 km/h (2 Bft) O-NO 67 0 min 0,0 UV-I -10,3 C -16,8 C 14,5 km/h (3 Bft)
25.03.2013 06:35 -6,3 C 6,9 C -6,1 C -7,4 C -11,2 C 0,0 C 73 % 76 % 0 % 1019,0 hPa 0,0 l/m 10,0 km/h (2 Bft) O-NO 67 0 min 0,0 UV-I -10,3 C -16,7 C 9,0 km/h (2 Bft)
25.03.2013 06:41 -6,4 C 6,9 C -6,1 C -7,5 C -11,3 C 0,0 C 73 % 77 % 0 % 1019,0 hPa 0,0 l/m 10,5 km/h (2 Bft) N 0 0 min 0,0 UV-I -10,4 C -17,0 C 10,5 km/h (2 Bft)
25.03.2013 07:00 -6,3 C 6,9 C -6,0 C -7,3 C -10,6 C 0,0 C 73 % 76 % 0 % 1019,4 hPa 0,0 l/m 9,5 km/h (2 Bft) O-NO 67 0 min 0,0 UV-I -10,3 C -15,8 C 9,8 km/h (2 Bft)
25.03.2013 07:05 -6,1 C 6,9 C -5,9 C -7,1 C -10,3 C 0,0 C 73 % 75 % 0 % 1019,4 hPa 0,0 l/m 9,2 km/h (2 Bft) O-NO 67 0 min 0,0 UV-I -10,1 C -15,3 C 8,4 km/h (2 Bft)
25.03.2013 07:10 -6,1 C 6,9 C -5,9 C -7,0 C -10,1 C 0,0 C 73 % 75 % 0 % 1019,4 hPa 0,0 l/m 8,9 km/h (2 Bft) O-SO 112 0 min 0,0 UV-I -10,1 C -15,0 C 9,5 km/h (2 Bft)
25.03.2013 07:15 -6,1 C 6,9 C -5,7 C -7,4 C -10,1 C 0,0 C 72 % 75 % 0 % 1019,4 hPa 0,0 l/m 9,2 km/h (2 Bft) O 90 0 min 0,0 UV-I -10,3 C -15,1 C 13,0 km/h (3 Bft)
25.03.2013 07:20 -6,1 C 6,9 C -5,7 C -6,9 C -9,9 C 0,0 C 72 % 75 % 0 % 1019,4 hPa 0,0 l/m 9,2 km/h (2 Bft) O-NO 67 0 min 0,0 UV-I -10,3 C -14,8 C 12,9 km/h (3 Bft)
25.03.2013 07:25 -6,1 C 6,9 C -5,5 C -6,9 C -9,7 C 0,0 C 72 % 75 % 0 % 1019,4 hPa 0,0 l/m 8,9 km/h (2 Bft) O 90 0 min 0,0 UV-I -10,3 C -14,5 C 11,7 km/h (2 Bft)
25.03.2013 07:30 -6,1 C 6,9 C -5,6 C -6,8 C -9,5 C 0,0 C 72 % 74 % 0 % 1019,4 hPa 0,0 l/m 8,5 km/h (2 Bft) O-NO 67 0 min 0,0 UV-I -10,3 C -14,1 C 6,4 km/h (2 Bft)
25.03.2013 07:35 -6,0 C 6,9 C -5,3 C -7,0 C -8,9 C 0,0 C 72 % 74 % 0 % 1019,4 hPa 0,0 l/m 7,2 km/h (2 Bft) NO 45 0 min 0,0 UV-I -10,2 C -12,8 C 7,1 km/h (2 Bft)
25.03.2013 07:40 -6,0 C 6,9 C -5,4 C -6,8 C -8,4 C 0,0 C 72 % 74 % 0 % 1019,4 hPa 0,0 l/m 6,8 km/h (2 Bft) O-NO 67 0 min 0,0 UV-I -10,2 C -12,1 C 8,9 km/h (2 Bft)
25.03.2013 07:45 -5,9 C 6,9 C -5,3 C -6,4 C -8,9 C 0,0 C 72 % 74 % 0 % 1019,4 hPa 0,0 l/m 7,9 km/h (2 Bft) O-SO 112 0 min 0,0 UV-I -10,1 C -13,1 C 16,6 km/h (3 Bft)
25.03.2013 07:50 -5,9 C 6,9 C -5,3 C -6,9 C -8,9 C 0,0 C 72 % 74 % 0 % 1019,4 hPa 0,0 l/m 8,2 km/h (2 Bft) NO 45 0 min 0,0 UV-I -10,1 C -13,3 C 7,2 km/h (2 Bft)
25.03.2013 07:55 -5,7 C 6,9 C -5,3 C -6,7 C -8,6 C 0,0 C 72 % 74 % 0 % 1019,4 hPa 0,0 l/m 7,4 km/h (2 Bft) O-SO 112 0 min 0,0 UV-I -9,9 C -12,6 C 6,4 km/h (2 Bft)
25.03.2013 08:00 -5,7 C 6,9 C -5,1 C -6,6 C -8,4 C 0,0 C 72 % 74 % 0 % 1019,4 hPa 0,0 l/m 7,6 km/h (2 Bft) O-SO 112 0 min 0,0 UV-I -9,9 C -12,4 C 10,0 km/h (2 Bft)
25.03.2013 08:05 -5,7 C 6,9 C -4,9 C -6,3 C -8,8 C 0,0 C 72 % 73 % 0 % 1019,4 hPa 0,0 l/m 8,5 km/h (2 Bft) O-NO 67 0 min 0,0 UV-I -9,9 C -13,3 C 21,1 km/h (4 Bft)
25.03.2013 08:10 -5,7 C 6,9 C -5,0 C -6,3 C -8,7 C 0,0 C 72 % 73 % 0 % 1019,4 hPa 0,0 l/m 8,7 km/h (2 Bft) NO 45 0 min 0,0 UV-I -9,9 C -13,2 C 13,7 km/h (3 Bft)
25.03.2013 08:15 -5,7 C 6,9 C -4,9 C -6,2 C -8,5 C 0,0 C 71 % 73 % 0 % 1019,4 hPa 0,0 l/m 8,7 km/h (2 Bft) O-NO 67 0 min 0,0 UV-I -10,1 C -13,0 C 13,2 km/h (3 Bft)
25.03.2013 08:20 -5,7 C 6,9 C -4,9 C -6,2 C -8,8 C 0,0 C 71 % 73 % 0 % 1019,4 hPa 0,0 l/m 10,1 km/h (2 Bft) O-NO 67 0 min 0,0 UV-I -10,1 C -13,9 C 11,7 km/h (2 Bft)
25.03.2013 08:25 -5,5 C 6,9 C -4,8 C -6,1 C -8,7 C 0,0 C 71 % 72 % 0 % 1019,4 hPa 0,0 l/m 10,3 km/h (2 Bft) O-SO 112 0 min 0,0 UV-I -9,9 C -13,8 C 9,8 km/h (2 Bft)
25.03.2013 08:30 -5,6 C 6,9 C -4,7 C -6,1 C -8,3 C 0,0 C 71 % 72 % 0 % 1019,4 hPa 0,0 l/m 9,8 km/h (2 Bft) O-NO 67 0 min 0,1 UV-I -10,0 C -13,2 C 10,8 km/h (2 Bft)
25.03.2013 08:35 -5,5 C 6,9 C -4,5 C -5,9 C -8,0 C 0,0 C 71 % 72 % 0 % 1019,1 hPa 0,0 l/m 9,3 km/h (2 Bft) O 90 0 min 0,1 UV-I -9,9 C -12,6 C 16,9 km/h (3 Bft)
25.03.2013 08:40 -5,3 C 6,9 C -4,5 C -5,7 C -7,9 C 0,0 C 71 % 72 % 0 % 1019,1 hPa 0,0 l/m 9,5 km/h (2 Bft) NO 45 0 min 0,1 UV-I -9,7 C -12,6 C 6,8 km/h (2 Bft)
25.03.2013 08:45 -5,3 C 6,9 C -4,4 C -5,7 C -7,8 C 0,0 C 71 % 72 % 0 % 1019,1 hPa 0,0 l/m 10,6 km/h (2 Bft) O 90 0 min 0,2 UV-I -9,7 C -12,8 C 11,3 km/h (2 Bft)
25.03.2013 08:50 -5,2 C 6,8 C -4,1 C -5,5 C -7,2 C 0,0 C 71 % 71 % 0 % 1019,1 hPa 0,0 l/m 9,7 km/h (2 Bft) O-NO 67 0 min 0,2 UV-I -9,6 C -11,8 C 11,3 km/h (2 Bft)
25.03.2013 08:55 -5,2 C 6,8 C -4,1 C -5,9 C -7,2 C 0,0 C 71 % 71 % 0 % 1019,1 hPa 0,0 l/m 9,5 km/h (2 Bft) O-NO 67 0 min 0,2 UV-I -9,6 C -11,7 C 17,4 km/h (3 Bft)
25.03.2013 09:00 -5,1 C 6,8 C -4,0 C -5,4 C -7,1 C 0,0 C 70 % 70 % 0 % 1019,1 hPa 0,0 l/m 9,7 km/h (2 Bft) O 90 0 min 0,3 UV-I -9,7 C -11,7 C 11,7 km/h (2 Bft)
25.03.2013 09:05 -4,9 C 6,8 C -3,9 C -5,1 C -6,2 C 0,0 C 70 % 70 % 0 % 1019,1 hPa 0,0 l/m 8,7 km/h (2 Bft) O-NO 67 0 min 0,3 UV-I -9,5 C -10,3 C 11,9 km/h (2 Bft)
25.03.2013 09:10 -4,9 C 6,9 C -3,7 C -4,8 C -5,8 C 0,1 C 69 % 70 % 3 % 1019,1 hPa 0,0 l/m 8,5 km/h (2 Bft) N-NO 22 0 min 0,3 UV-I -9,7 C -9,7 C 11,3 km/h (2 Bft)
25.03.2013 09:15 -4,9 C 6,8 C -3,7 C -5,0 C -7,1 C 0,0 C 69 % 68 % 0 % 1019,2 hPa 0,0 l/m 11,7 km/h (2 Bft) O-NO 67 0 min 0,4 UV-I -9,7 C -12,3 C 22,4 km/h (4 Bft)
25.03.2013 09:20 -4,7 C 6,9 C -3,3 C -5,0 C -6,8 C 0,0 C 69 % 69 % 0 % 1019,2 hPa 0,0 l/m 11,7 km/h (2 Bft) O 90 0 min 0,4 UV-I -9,5 C -12,0 C 11,4 km/h (2 Bft)
25.03.2013 09:25 -4,5 C 6,9 C -3,1 C -4,6 C -5,8 C 0,0 C 69 % 69 % 0 % 1019,2 hPa 0,0 l/m 9,5 km/h (2 Bft) O 90 0 min 0,5 UV-I -9,3 C -10,1 C 14,8 km/h (3 Bft)
25.03.2013 09:30 -4,3 C 6,9 C -2,5 C -4,3 C -5,3 C 0,0 C 68 % 67 % 0 % 1019,2 hPa 0,0 l/m 8,7 km/h (2 Bft) O 90 0 min 0,5 UV-I -9,3 C -9,2 C 10,3 km/h (2 Bft)
25.03.2013 09:35 -4,4 C 6,9 C -2,1 C -4,1 C -5,2 C 0,3 C 68 % 65 % 8 % 1019,2 hPa 0,0 l/m 9,2 km/h (2 Bft) O-NO 67 0 min 0,6 UV-I -9,4 C -9,3 C 11,7 km/h (2 Bft)
25.03.2013 09:40 -4,3 C 6,9 C -1,9 C -4,1 C -5,3 C 0,2 C 68 % 64 % 5 % 1019,2 hPa 0,0 l/m 9,3 km/h (2 Bft) O-NO 67 0 min 0,6 UV-I -9,3 C -9,4 C 9,2 km/h (2 Bft)
25.03.2013 09:45 -4,3 C 6,9 C -2,1 C -4,6 C -5,3 C 0,0 C 67 % 63 % 0 % 1019,2 hPa 0,0 l/m 9,7 km/h (2 Bft) O-NO 67 0 min 0,6 UV-I -9,5 C -9,6 C 15,3 km/h (3 Bft)
25.03.2013 09:50 -4,3 C 6,9 C -2,1 C -4,6 C -5,3 C 0,0 C 67 % 64 % 0 % 1019,2 hPa 0,0 l/m 10,3 km/h (2 Bft) O-NO 67 0 min 0,6 UV-I -9,5 C -9,7 C 10,0 km/h (2 Bft)
25.03.2013 09:55 -4,1 C 6,9 C -2,1 C -4,2 C -5,7 C 0,0 C 67 % 63 % 0 % 1019,2 hPa 0,0 l/m 10,6 km/h (2 Bft) O-NO 67 0 min 0,7 UV-I -9,3 C -10,3 C 11,4 km/h (2 Bft)
25.03.2013 10:00 -4,2 C 6,9 C -2,1 C -4,3 C -5,9 C 0,0 C 66 % 64 % 0 % 1019,2 hPa 0,0 l/m 10,6 km/h (2 Bft) O-NO 67 0 min 0,7 UV-I -9,6 C -10,5 C 10,8 km/h (2 Bft)
25.03.2013 10:05 -4,1 C 6,9 C -2,6 C -4,3 C -6,4 C 0,0 C 66 % 64 % 0 % 1019,2 hPa 0,0 l/m 12,2 km/h (2 Bft) O-NO 67 0 min 0,7 UV-I -9,5 C -11,6 C 12,7 km/h (3 Bft)
25.03.2013 10:10 -4,1 C 6,9 C -2,5 C -4,4 C -6,3 C 0,0 C 66 % 65 % 0 % 1019,2 hPa 0,0 l/m 12,2 km/h (2 Bft) O-NO 67 0 min 0,8 UV-I -9,5 C -11,5 C 15,1 km/h (3 Bft)
25.03.2013 10:15 -3,9 C 6,9 C -2,7 C -4,2 C -6,2 C 0,0 C 66 % 65 % 0 % 1019,1 hPa 0,0 l/m 12,4 km/h (3 Bft) O-NO 67 0 min 0,9 UV-I -9,3 C -11,4 C 20,4 km/h (4 Bft)
25.03.2013 10:20 -4,0 C 6,9 C -2,7 C -4,7 C -6,2 C 0,0 C 66 % 65 % 0 % 1019,1 hPa 0,0 l/m 13,2 km/h (3 Bft) W-NW 292 0 min 0,9 UV-I -9,4 C -11,6 C 11,9 km/h (2 Bft)
25.03.2013 10:25 -3,9 C 6,9 C -2,5 C -4,1 C -5,8 C 0,0 C 66 % 66 % 0 % 1019,1 hPa 0,0 l/m 12,1 km/h (2 Bft) SO 135 0 min 0,9 UV-I -9,3 C -10,9 C 13,5 km/h (3 Bft)
25.03.2013 10:30 -3,8 C 6,9 C -2,5 C -4,0 C -5,4 C 0,0 C 66 % 65 % 0 % 1019,1 hPa 0,0 l/m 10,5 km/h (2 Bft) NO 45 0 min 0,9 UV-I -9,2 C -9,9 C 13,0 km/h (3 Bft)
25.03.2013 10:35 -3,7 C 6,9 C -2,5 C -3,8 C -5,2 C 0,0 C 66 % 65 % 0 % 1019,1 hPa 0,0 l/m 10,9 km/h (2 Bft) O-NO 67 0 min 0,9 UV-I -9,1 C -9,8 C 13,2 km/h (3 Bft)
25.03.2013 10:40 -3,7 C 6,9 C -2,5 C -3,8 C -5,1 C 0,0 C 66 % 65 % 0 % 1019,1 hPa 0,0 l/m 10,8 km/h (2 Bft) O-NO 67 0 min 1,0 UV-I -9,1 C -9,6 C 11,4 km/h (2 Bft)
25.03.2013 10:45 -3,7 C 6,9 C -2,6 C -3,8 C -5,4 C 0,0 C 65 % 65 % 0 % 1019,1 hPa 0,0 l/m 11,1 km/h (2 Bft) O-SO 112 0 min 0,9 UV-I -9,3 C -10,1 C 13,7 km/h (3 Bft)
25.03.2013 10:50 -3,7 C 6,9 C -2,5 C -4,3 C -5,4 C 0,0 C 65 % 65 % 0 % 1019,1 hPa 0,0 l/m 10,9 km/h (2 Bft) O-SO 112 0 min 1,0 UV-I -9,3 C -10,0 C 16,1 km/h (3 Bft)
25.03.2013 10:55 -3,6 C 6,9 C -2,5 C -3,7 C -5,1 C 0,0 C 65 % 65 % 0 % 1019,5 hPa 0,0 l/m 10,8 km/h (2 Bft) O-NO 67 0 min 1,0 UV-I -9,2 C -9,6 C 11,4 km/h (2 Bft)
25.03.2013 11:00 -3,6 C 6,9 C -2,5 C -3,7 C -5,2 C 0,0 C 65 % 65 % 0 % 1019,5 hPa 0,0 l/m 11,4 km/h (2 Bft) O-NO 67 0 min 1,0 UV-I -9,2 C -9,9 C 15,9 km/h (3 Bft)
25.03.2013 11:05 -3,4 C 6,9 C -2,3 C -3,5 C -5,1 C 0,0 C 65 % 65 % 0 % 1019,5 hPa 0,0 l/m 11,6 km/h (2 Bft) O 90 0 min 1,0 UV-I -9,0 C -9,9 C 18,2 km/h (3 Bft)
25.03.2013 11:10 -3,3 C 6,9 C -1,5 C -3,4 C -4,7 C 0,0 C 64 % 64 % 0 % 1019,5 hPa 0,0 l/m 11,1 km/h (2 Bft) O-NO 67 0 min 1,0 UV-I -9,1 C -9,3 C 16,9 km/h (3 Bft)
25.03.2013 11:15 -3,3 C 6,9 C -0,7 C -3,2 C -4,4 C 0,1 C 64 % 61 % 3 % 1019,5 hPa 0,0 l/m 11,6 km/h (2 Bft) O-NO 67 0 min 1,1 UV-I -9,1 C -9,0 C 7,4 km/h (2 Bft)
25.03.2013 11:20 -3,2 C 6,9 C -0,5 C -2,9 C -3,9 C 0,3 C 64 % 60 % 8 % 1019,5 hPa 0,0 l/m 11,1 km/h (2 Bft) O-NO 67 0 min 1,2 UV-I -9,0 C -8,3 C 16,7 km/h (3 Bft)
25.03.2013 11:25 -3,3 C 6,9 C -0,9 C -2,8 C -4,2 C 0,5 C 64 % 59 % 13 % 1019,5 hPa 0,0 l/m 11,4 km/h (2 Bft) O-NO 67 0 min 1,3 UV-I -9,1 C -8,7 C 12,4 km/h (3 Bft)
25.03.2013 11:30 -3,2 C 6,9 C -0,9 C -3,0 C -4,3 C 0,2 C 64 % 60 % 5 % 1019,5 hPa 0,0 l/m 11,9 km/h (2 Bft) O-NO 67 0 min 1,2 UV-I -9,0 C -9,0 C 15,4 km/h (3 Bft)
25.03.2013 11:35 -3,3 C 6,9 C -0,9 C -3,0 C -4,2 C 0,3 C 64 % 60 % 8 % 1019,5 hPa 0,0 l/m 11,4 km/h (2 Bft) O 90 0 min 1,2 UV-I -9,1 C -8,7 C 23,3 km/h (4 Bft)
25.03.2013 11:40 -3,2 C 6,9 C -0,7 C -2,7 C -3,8 C 0,5 C 64 % 60 % 13 % 1019,5 hPa 0,0 l/m 11,6 km/h (2 Bft) O 90 0 min 1,4 UV-I -9,0 C -8,3 C 12,7 km/h (3 Bft)
25.03.2013 11:45 -3,1 C 6,9 C -0,5 C -2,3 C -3,4 C 0,8 C 63 % 59 % 21 % 1019,5 hPa 0,0 l/m 11,4 km/h (2 Bft) O-NO 67 0 min 1,5 UV-I -9,1 C -7,8 C 25,6 km/h (4 Bft)
25.03.2013 11:50 -3,1 C 6,9 C -0,1 C -2,3 C -3,7 C 0,8 C 63 % 58 % 21 % 1019,5 hPa 0,0 l/m 13,0 km/h (3 Bft) O 90 0 min 1,6 UV-I -9,1 C -8,5 C 16,6 km/h (3 Bft)
25.03.2013 11:55 -2,9 C 6,9 C 0,4 C -2,0 C -3,1 C 0,9 C 63 % 57 % 24 % 1019,5 hPa 0,0 l/m 13,0 km/h (3 Bft) O-NO 67 0 min 1,8 UV-I -8,9 C -7,8 C 19,8 km/h (3 Bft)
25.03.2013 12:00 -2,9 C 6,9 C 0,6 C -1,6 C -2,8 C 1,3 C 64 % 57 % 34 % 1019,5 hPa 0,0 l/m 12,9 km/h (3 Bft) O-NO 67 0 min 1,9 UV-I -8,7 C -7,4 C 14,5 km/h (3 Bft)
25.03.2013 12:05 -2,7 C 6,9 C 1,0 C -1,3 C -2,4 C 1,4 C 64 % 58 % 37 % 1019,5 hPa 0,0 l/m 12,9 km/h (3 Bft) O-SO 112 0 min 1,9 UV-I -8,5 C -6,9 C 11,7 km/h (2 Bft)
25.03.2013 12:10 -2,7 C 6,9 C 0,8 C -1,0 C -2,1 C 1,7 C 62 % 55 % 45 % 1019,5 hPa 0,0 l/m 12,6 km/h (3 Bft) O-NO 67 0 min 2,0 UV-I -8,9 C -6,5 C 15,8 km/h (3 Bft)
25.03.2013 12:15 -2,7 C 6,9 C 0,7 C -1,0 C -2,3 C 1,7 C 62 % 55 % 45 % 1019,5 hPa 0,0 l/m 13,0 km/h (3 Bft) O-SO 112 0 min 2,0 UV-I -8,9 C -6,8 C 17,5 km/h (3 Bft)
25.03.2013 12:20 -2,5 C 6,9 C 0,9 C -0,9 C -1,9 C 1,6 C 63 % 57 % 42 % 1019,5 hPa 0,0 l/m 12,2 km/h (2 Bft) O 90 0 min 2,0 UV-I -8,6 C -6,2 C 16,1 km/h (3 Bft)
25.03.2013 12:25 -2,5 C 6,9 C 0,1 C -1,9 C -1,9 C 0,6 C 63 % 57 % 16 % 1019,5 hPa 0,0 l/m 12,1 km/h (2 Bft) O 90 0 min 2,0 UV-I -8,6 C -6,1 C 13,5 km/h (3 Bft)
25.03.2013 12:30 -2,4 C 6,9 C 0,3 C -0,5 C -1,4 C 1,9 C 64 % 58 % 50 % 1019,5 hPa 0,0 l/m 11,7 km/h (2 Bft) O 90 0 min 2,0 UV-I -8,3 C -5,4 C 12,9 km/h (3 Bft)
25.03.2013 12:35 -2,3 C 6,9 C 0,1 C -0,1 C -1,0 C 2,2 C 64 % 59 % 58 % 1018,9 hPa 0,0 l/m 10,8 km/h (2 Bft) O-NO 67 0 min 2,0 UV-I -8,2 C -4,7 C 12,9 km/h (3 Bft)
25.03.2013 12:41 -2,3 C 6,9 C 0,0 C -1,0 C -1,0 C 1,3 C 63 % 58 % 34 % 1018,9 hPa 0,0 l/m 10,8 km/h (2 Bft) N 0 0 min 2,0 UV-I -8,4 C -4,7 C 12,9 km/h (3 Bft)
25.03.2013 13:00 -2,2 C 6,9 C 0,4 C -0,2 C -1,5 C 2,0 C 62 % 58 % 53 % 1018,9 hPa 0,0 l/m 11,9 km/h (2 Bft) O 90 0 min 1,9 UV-I -8,5 C -5,6 C 6,4 km/h (2 Bft)
25.03.2013 13:05 -2,1 C 6,9 C 0,4 C -0,4 C -1,6 C 1,7 C 62 % 58 % 45 % 1018,9 hPa 0,0 l/m 12,7 km/h (3 Bft) O-NO 67 0 min 1,8 UV-I -8,4 C -5,9 C 16,4 km/h (3 Bft)
25.03.2013 13:10 -2,1 C 6,9 C 0,3 C -1,6 C -1,6 C 0,5 C 62 % 58 % 13 % 1018,9 hPa 0,0 l/m 11,7 km/h (2 Bft) O-NO 67 0 min 1,6 UV-I -8,4 C -5,7 C 17,7 km/h (3 Bft)
25.03.2013 13:15 -2,2 C 6,9 C 0,2 C -0,7 C -2,1 C 1,5 C 61 % 57 % 39 % 1018,9 hPa 0,0 l/m 12,4 km/h (3 Bft) O-NO 67 0 min 1,6 UV-I -8,7 C -6,4 C 14,2 km/h (3 Bft)
25.03.2013 13:20 -2,2 C 6,9 C 0,2 C -1,0 C -2,3 C 1,2 C 61 % 57 % 32 % 1018,9 hPa 0,0 l/m 13,4 km/h (3 Bft) O-NO 67 0 min 1,6 UV-I -8,7 C -6,9 C 15,4 km/h (3 Bft)
25.03.2013 13:25 -2,1 C 6,9 C 0,4 C -0,8 C -1,8 C 1,3 C 61 % 57 % 34 % 1018,9 hPa 0,0 l/m 12,6 km/h (3 Bft) O-NO 67 0 min 1,5 UV-I -8,6 C -6,1 C 11,1 km/h (2 Bft)
25.03.2013 13:30 -2,1 C 6,9 C 0,3 C -0,8 C -2,1 C 1,3 C 61 % 56 % 34 % 1018,9 hPa 0,0 l/m 12,9 km/h (3 Bft) O 90 0 min 1,5 UV-I -8,6 C -6,6 C 12,2 km/h (2 Bft)
25.03.2013 13:35 -2,0 C 6,9 C 0,4 C -0,9 C -2,2 C 1,1 C 60 % 57 % 29 % 1018,0 hPa 0,0 l/m 13,5 km/h (3 Bft) O-NO 67 0 min 1,4 UV-I -8,7 C -6,8 C 11,4 km/h (2 Bft)
25.03.2013 13:40 -1,9 C 6,9 C 0,1 C -2,0 C -2,2 C 0,0 C 59 % 56 % 0 % 1018,0 hPa 0,0 l/m 13,5 km/h (3 Bft) O-NO 67 0 min 1,5 UV-I -8,8 C -6,8 C 18,2 km/h (3 Bft)
25.03.2013 13:45 -1,7 C 6,9 C -0,1 C -0,6 C -1,5 C 1,1 C 60 % 58 % 29 % 1018,0 hPa 0,0 l/m 11,9 km/h (2 Bft) O-NO 67 0 min 1,4 UV-I -8,4 C -5,6 C 15,4 km/h (3 Bft)
25.03.2013 13:50 -1,7 C 6,9 C -0,3 C -0,3 C -1,4 C 1,4 C 60 % 59 % 37 % 1018,0 hPa 0,0 l/m 11,9 km/h (2 Bft) NO 45 0 min 1,4 UV-I -8,4 C -5,5 C 14,5 km/h (3 Bft)
25.03.2013 13:55 -1,7 C 6,9 C -0,5 C -0,6 C -2,2 C 1,1 C 59 % 59 % 29 % 1018,0 hPa 0,0 l/m 14,5 km/h (3 Bft) O 90 0 min 1,4 UV-I -8,6 C -7,0 C 17,9 km/h (3 Bft)
25.03.2013 14:00 -1,8 C 6,9 C -0,7 C -1,1 C -2,7 C 0,7 C 58 % 58 % 18 % 1018,0 hPa 0,0 l/m 16,3 km/h (3 Bft) O-NO 67 0 min 1,4 UV-I -8,9 C -8,0 C 12,6 km/h (3 Bft)
25.03.2013 14:05 -1,7 C 6,9 C -0,7 C -1,2 C -2,6 C 0,5 C 58 % 59 % 13 % 1018,0 hPa 0,0 l/m 16,1 km/h (3 Bft) NO 45 0 min 1,4 UV-I -8,9 C -7,8 C 29,6 km/h (5 Bft)
25.03.2013 14:10 -1,3 C 6,9 C -0,5 C -0,7 C -1,6 C 0,6 C 59 % 60 % 16 % 1018,0 hPa 0,0 l/m 13,7 km/h (3 Bft) O-NO 67 0 min 1,3 UV-I -8,3 C -6,1 C 13,5 km/h (3 Bft)
25.03.2013 14:15 -1,4 C 6,9 C -0,5 C 0,0 C -0,9 C 1,4 C 58 % 60 % 37 % 1018,1 hPa 0,0 l/m 11,9 km/h (2 Bft) O-NO 67 0 min 1,3 UV-I -8,6 C -4,9 C 14,2 km/h (3 Bft)
25.03.2013 14:20 -1,3 C 6,9 C -0,5 C -0,9 C -0,9 C 0,4 C 57 % 58 % 11 % 1018,1 hPa 0,0 l/m 12,7 km/h (3 Bft) O-NO 67 0 min 1,3 UV-I -8,7 C -5,1 C 15,6 km/h (3 Bft)
25.03.2013 14:25 -1,3 C 6,9 C -0,6 C 0,0 C -1,4 C 1,3 C 57 % 58 % 34 % 1018,1 hPa 0,0 l/m 13,5 km/h (3 Bft) O-NO 67 0 min 1,2 UV-I -8,7 C -5,8 C 15,0 km/h (3 Bft)
25.03.2013 14:30 -1,3 C 6,9 C -0,5 C -0,1 C -1,3 C 1,2 C 56 % 58 % 32 % 1018,1 hPa 0,0 l/m 13,4 km/h (3 Bft) O-NO 67 0 min 1,1 UV-I -8,9 C -5,7 C 13,2 km/h (3 Bft)
25.03.2013 14:35 -1,2 C 6,9 C -0,5 C -0,1 C -1,2 C 1,1 C 56 % 58 % 29 % 1018,1 hPa 0,0 l/m 12,9 km/h (3 Bft) O 90 0 min 1,0 UV-I -8,8 C -5,5 C 15,1 km/h (3 Bft)
25.03.2013 14:40 -1,1 C 6,9 C -0,5 C 0,0 C -1,1 C 1,1 C 56 % 59 % 29 % 1018,1 hPa 0,0 l/m 12,6 km/h (3 Bft) O 90 0 min 1,0 UV-I -8,7 C -5,3 C 15,3 km/h (3 Bft)
25.03.2013 14:45 -0,9 C 6,9 C -0,6 C 0,3 C -0,6 C 1,2 C 57 % 59 % 32 % 1018,1 hPa 0,0 l/m 11,3 km/h (2 Bft) O 90 0 min 0,9 UV-I -8,3 C -4,4 C 14,8 km/h (3 Bft)
25.03.2013 14:50 -0,9 C 6,9 C -0,5 C 0,8 C 0,1 C 1,7 C 57 % 60 % 45 % 1018,1 hPa 0,0 l/m 9,8 km/h (2 Bft) O 90 0 min 0,9 UV-I -8,3 C -3,1 C 10,5 km/h (2 Bft)
25.03.2013 14:55 -0,9 C 6,9 C -0,5 C 0,9 C -0,1 C 1,8 C 55 % 58 % 47 % 1017,5 hPa 0,0 l/m 10,5 km/h (2 Bft) O 90 0 min 0,8 UV-I -8,8 C -3,6 C 22,5 km/h (4 Bft)
25.03.2013 15:00 -1,0 C 6,9 C -0,5 C 0,5 C -0,8 C 1,5 C 56 % 59 % 39 % 1017,5 hPa 0,0 l/m 11,3 km/h (2 Bft) O-NO 67 0 min 0,7 UV-I -8,6 C -4,6 C 11,7 km/h (2 Bft)
25.03.2013 15:05 -0,9 C 6,9 C -0,5 C 0,2 C -1,0 C 1,1 C 55 % 58 % 29 % 1017,5 hPa 0,0 l/m 11,7 km/h (2 Bft) O-NO 67 0 min 0,7 UV-I -8,8 C -4,9 C 12,9 km/h (3 Bft)
25.03.2013 15:10 -0,9 C 6,9 C -0,5 C 0,3 C -0,5 C 1,2 C 56 % 59 % 32 % 1017,5 hPa 0,0 l/m 10,6 km/h (2 Bft) O-NO 67 0 min 0,6 UV-I -8,5 C -4,1 C 8,4 km/h (2 Bft)
25.03.2013 15:15 -0,7 C 6,9 C -0,4 C 0,8 C 0,2 C 1,5 C 56 % 58 % 39 % 1017,6 hPa 0,0 l/m 8,9 km/h (2 Bft) O-NO 67 0 min 0,6 UV-I -8,4 C -2,8 C 10,3 km/h (2 Bft)
25.03.2013 15:20 -0,8 C 6,9 C -0,5 C 0,8 C -0,4 C 1,6 C 54 % 57 % 42 % 1017,6 hPa 0,0 l/m 10,3 km/h (2 Bft) O-NO 67 0 min 0,5 UV-I -8,9 C -3,9 C 15,1 km/h (3 Bft)
25.03.2013 15:25 -0,8 C 6,9 C -0,5 C 0,3 C -0,9 C 1,1 C 54 % 58 % 29 % 1017,6 hPa 0,0 l/m 11,6 km/h (2 Bft) NO 45 0 min 0,5 UV-I -8,9 C -4,8 C 11,9 km/h (2 Bft)
25.03.2013 15:30 -0,9 C 6,9 C -0,5 C -0,1 C -1,5 C 0,8 C 54 % 57 % 21 % 1017,6 hPa 0,0 l/m 12,6 km/h (3 Bft) O-NO 67 0 min 0,4 UV-I -9,0 C -5,8 C 9,8 km/h (2 Bft)
25.03.2013 15:35 -0,9 C 6,9 C -0,6 C -0,5 C -1,8 C 0,4 C 54 % 58 % 11 % 1017,6 hPa 0,0 l/m 12,6 km/h (3 Bft) O-NO 67 0 min 0,4 UV-I -9,0 C -6,1 C 19,0 km/h (3 Bft)
25.03.2013 15:40 -0,7 C 6,9 C -0,5 C -0,5 C -1,5 C 0,2 C 55 % 58 % 5 % 1017,6 hPa 0,0 l/m 11,3 km/h (2 Bft) O-NO 67 0 min 0,3 UV-I -8,6 C -5,4 C 14,2 km/h (3 Bft)
25.03.2013 15:45 -0,8 C 6,9 C -0,5 C -0,6 C -1,9 C 0,2 C 54 % 57 % 5 % 1017,6 hPa 0,0 l/m 13,0 km/h (3 Bft) O 90 0 min 0,3 UV-I -8,9 C -6,3 C 10,9 km/h (2 Bft)
25.03.2013 15:50 -0,8 C 6,9 C -0,5 C -0,7 C -2,0 C 0,1 C 54 % 57 % 3 % 1017,6 hPa 0,0 l/m 13,4 km/h (3 Bft) NO 45 0 min 0,3 UV-I -8,9 C -6,5 C 22,2 km/h (4 Bft)
25.03.2013 15:55 -0,7 C 6,9 C -0,5 C -0,8 C -2,1 C 0,0 C 54 % 57 % 0 % 1017,6 hPa 0,0 l/m 12,2 km/h (2 Bft) O-NO 67 0 min 0,2 UV-I -8,8 C -6,4 C 15,3 km/h (3 Bft)
25.03.2013 16:00 -0,8 C 6,9 C -0,6 C -0,8 C -2,2 C 0,0 C 53 % 57 % 0 % 1017,6 hPa 0,0 l/m 13,7 km/h (3 Bft) O-NO 67 0 min 0,2 UV-I -9,2 C -6,9 C 15,0 km/h (3 Bft)
25.03.2013 16:05 -0,8 C 6,9 C -0,5 C -0,6 C -1,6 C 0,2 C 54 % 57 % 5 % 1017,6 hPa 0,0 l/m 12,6 km/h (3 Bft) O-NO 67 0 min 0,2 UV-I -8,9 C -5,9 C 10,9 km/h (2 Bft)
25.03.2013 16:10 -0,7 C 6,9 C -0,5 C -0,3 C -1,2 C 0,4 C 54 % 58 % 11 % 1017,6 hPa 0,0 l/m 10,6 km/h (2 Bft) O-NO 67 0 min 0,1 UV-I -8,8 C -4,9 C 13,5 km/h (3 Bft)
25.03.2013 16:15 -0,7 C 6,9 C -0,5 C -0,3 C -1,4 C 0,4 C 55 % 58 % 11 % 1017,1 hPa 0,0 l/m 10,0 km/h (2 Bft) NO 45 0 min 0,1 UV-I -8,6 C -5,0 C 13,4 km/h (3 Bft)
25.03.2013 16:20 -0,7 C 6,9 C -0,5 C -0,6 C -1,9 C 0,1 C 53 % 57 % 3 % 1017,1 hPa 0,0 l/m 11,6 km/h (2 Bft) O-NO 67 0 min 0,1 UV-I -9,1 C -6,0 C 20,0 km/h (4 Bft)
25.03.2013 16:25 -0,7 C 6,9 C -0,3 C -0,9 C -2,7 C 0,0 C 52 % 57 % 0 % 1017,1 hPa 0,0 l/m 12,9 km/h (3 Bft) O-NO 67 0 min 0,1 UV-I -9,3 C -7,3 C 16,7 km/h (3 Bft)
25.03.2013 16:30 -0,9 C 6,9 C -0,5 C -1,1 C -2,8 C 0,0 C 53 % 57 % 0 % 1017,1 hPa 0,0 l/m 12,4 km/h (3 Bft) O-NO 67 0 min 0,0 UV-I -9,2 C -7,3 C 10,6 km/h (2 Bft)
25.03.2013 16:35 -0,9 C 6,9 C -0,5 C -1,2 C -3,2 C 0,0 C 52 % 56 % 0 % 1017,1 hPa 0,0 l/m 11,9 km/h (2 Bft) O-NO 67 0 min 0,0 UV-I -9,5 C -7,7 C 18,5 km/h (3 Bft)
25.03.2013 16:40 -0,9 C 6,9 C -0,5 C -1,4 C -3,8 C 0,0 C 53 % 57 % 0 % 1017,1 hPa 0,0 l/m 13,2 km/h (3 Bft) O-NO 67 0 min 0,0 UV-I -9,2 C -8,7 C 24,9 km/h (4 Bft)
25.03.2013 16:45 -0,9 C 6,9 C -0,7 C -1,5 C -4,1 C 0,0 C 54 % 58 % 0 % 1017,1 hPa 0,0 l/m 13,8 km/h (3 Bft) NO 45 0 min 0,0 UV-I -9,0 C -9,2 C 12,4 km/h (3 Bft)
25.03.2013 16:50 -1,0 C 6,9 C -0,7 C -1,6 C -3,9 C 0,0 C 54 % 58 % 0 % 1017,1 hPa 0,0 l/m 12,6 km/h (3 Bft) O-NO 67 0 min 0,0 UV-I -9,1 C -8,7 C 16,1 km/h (3 Bft)
25.03.2013 16:55 -0,9 C 6,9 C -0,7 C -1,5 C -3,8 C 0,0 C 54 % 58 % 0 % 1017,3 hPa 0,0 l/m 11,3 km/h (2 Bft) O-NO 67 0 min 0,0 UV-I -9,0 C -8,2 C 13,7 km/h (3 Bft)
25.03.2013 17:00 -0,9 C 6,9 C -0,9 C -1,5 C -3,9 C 0,0 C 55 % 59 % 0 % 1017,3 hPa 0,0 l/m 11,3 km/h (2 Bft) O-NO 67 0 min 0,0 UV-I -8,8 C -8,3 C 14,2 km/h (3 Bft)
25.03.2013 17:05 -1,1 C 6,9 C -0,9 C -1,6 C -3,6 C 0,0 C 55 % 59 % 0 % 1017,3 hPa 0,0 l/m 10,1 km/h (2 Bft) O 90 0 min 0,0 UV-I -9,0 C -7,6 C 11,1 km/h (2 Bft)
25.03.2013 17:10 -1,1 C 6,9 C -0,9 C -1,5 C -3,2 C 0,0 C 56 % 59 % 0 % 1017,3 hPa 0,0 l/m 8,7 km/h (2 Bft) O 90 0 min 0,0 UV-I -8,7 C -6,7 C 8,9 km/h (2 Bft)
25.03.2013 17:15 -1,2 C 6,9 C -0,9 C -1,9 C -3,2 C 0,0 C 56 % 59 % 0 % 1016,9 hPa 0,0 l/m 8,9 km/h (2 Bft) O 90 0 min 0,0 UV-I -8,8 C -6,8 C 12,9 km/h (3 Bft)
25.03.2013 17:20 -1,2 C 6,9 C -0,9 C -1,6 C -3,8 C 0,0 C 55 % 59 % 0 % 1016,9 hPa 0,0 l/m 10,5 km/h (2 Bft) O-SO 112 0 min 0,0 UV-I -9,1 C -8,0 C 15,8 km/h (3 Bft)
25.03.2013 17:25 -1,1 C 6,9 C -1,2 C -1,7 C -4,3 C 0,0 C 56 % 60 % 0 % 1016,9 hPa 0,0 l/m 10,9 km/h (2 Bft) O-NO 67 0 min 0,0 UV-I -8,7 C -8,7 C 10,9 km/h (2 Bft)
25.03.2013 17:30 -1,3 C 6,9 C -1,1 C -1,9 C -4,1 C 0,0 C 56 % 60 % 0 % 1016,9 hPa 0,0 l/m 9,8 km/h (2 Bft) O-NO 67 0 min 0,0 UV-I -8,9 C -8,2 C 9,3 km/h (2 Bft)
25.03.2013 17:35 -1,3 C 6,9 C -1,3 C -1,9 C -4,3 C 0,0 C 56 % 60 % 0 % 1017,1 hPa 0,0 l/m 9,5 km/h (2 Bft) O 90 0 min 0,0 UV-I -8,9 C -8,3 C 19,2 km/h (3 Bft)
25.03.2013 17:40 -1,3 C 6,9 C -1,3 C -2,0 C -4,4 C 0,0 C 56 % 60 % 0 % 1017,1 hPa 0,0 l/m 9,3 km/h (2 Bft) O-NO 67 0 min 0,0 UV-I -8,9 C -8,4 C 6,9 km/h (2 Bft)
25.03.2013 17:45 -1,3 C 6,9 C -1,5 C -2,3 C -4,4 C 0,0 C 56 % 60 % 0 % 1017,1 hPa 0,0 l/m 8,7 km/h (2 Bft) O-NO 67 0 min 0,0 UV-I -8,9 C -8,2 C 13,5 km/h (3 Bft)
25.03.2013 17:50 -1,5 C 6,9 C -1,6 C -2,3 C -4,0 C 0,0 C 57 % 61 % 0 % 1017,1 hPa 0,0 l/m 7,2 km/h (2 Bft) O-NO 67 0 min 0,0 UV-I -8,9 C -7,1 C 6,4 km/h (2 Bft)
25.03.2013 17:55 -1,6 C 6,9 C -1,7 C -2,5 C -4,4 C 0,0 C 59 % 63 % 0 % 1017,1 hPa 0,0 l/m 6,8 km/h (2 Bft) O-NO 67 0 min 0,0 UV-I -8,5 C -7,4 C 6,8 km/h (2 Bft)
25.03.2013 18:00 -1,7 C 6,9 C -1,7 C -2,7 C -4,8 C 0,0 C 60 % 64 % 0 % 1017,1 hPa 0,0 l/m 7,2 km/h (2 Bft) O-NO 67 0 min 0,0 UV-I -8,4 C -8,1 C 12,2 km/h (2 Bft)
25.03.2013 18:05 -1,7 C 6,9 C -1,9 C -2,9 C -5,2 C 0,0 C 60 % 64 % 0 % 1017,1 hPa 0,0 l/m 7,4 km/h (2 Bft) O-NO 67 0 min 0,0 UV-I -8,4 C -8,6 C 7,1 km/h (2 Bft)
25.03.2013 18:10 -1,7 C 6,9 C -2,0 C -2,9 C -5,4 C 0,0 C 60 % 65 % 0 % 1017,1 hPa 0,0 l/m 7,6 km/h (2 Bft) O-NO 67 0 min 0,0 UV-I -8,4 C -8,9 C 8,5 km/h (2 Bft)
25.03.2013 18:15 -1,9 C 6,9 C -2,1 C -3,1 C -5,5 C 0,0 C 61 % 65 % 0 % 1017,5 hPa 0,0 l/m 7,1 km/h (2 Bft) SO 135 0 min 0,0 UV-I -8,4 C -8,8 C 5,1 km/h (1 Bft)
25.03.2013 18:20 -2,0 C 6,9 C -2,1 C -3,2 C -5,5 C 0,0 C 61 % 65 % 0 % 1017,5 hPa 0,0 l/m 6,8 km/h (2 Bft) NO 45 0 min 0,0 UV-I -8,5 C -8,7 C 7,6 km/h (2 Bft)
25.03.2013 18:25 -2,1 C 6,9 C -2,1 C -3,0 C -6,0 C 0,0 C 61 % 65 % 0 % 1017,5 hPa 0,0 l/m 7,9 km/h (2 Bft) O-NO 67 0 min 0,0 UV-I -8,6 C -9,7 C 12,7 km/h (3 Bft)
25.03.2013 18:30 -2,1 C 6,9 C -2,3 C -3,4 C -6,0 C 0,0 C 62 % 66 % 0 % 1017,5 hPa 0,0 l/m 8,0 km/h (2 Bft) O-SO 112 0 min 0,0 UV-I -8,4 C -9,8 C 6,6 km/h (2 Bft)
25.03.2013 18:35 -2,1 C 6,9 C -2,3 C -3,1 C -6,4 C 0,0 C 62 % 66 % 0 % 1017,5 hPa 0,0 l/m 9,5 km/h (2 Bft) O-NO 67 0 min 0,0 UV-I -8,4 C -10,8 C 12,2 km/h (2 Bft)
25.03.2013 18:41 -2,2 C 6,9 C -2,3 C -3,2 C -6,6 C 0,0 C 62 % 66 % 0 % 1017,5 hPa 0,0 l/m 9,8 km/h (2 Bft) N 0 0 min 0,0 UV-I -8,5 C -11,1 C 13,2 km/h (3 Bft)
25.03.2013 19:00 -2,4 C 6,8 C -2,5 C -3,8 C -6,6 C 0,0 C 63 % 68 % 0 % 1017,5 hPa 0,0 l/m 8,7 km/h (2 Bft) O-NO 67 0 min 0,0 UV-I -8,5 C -10,8 C 7,6 km/h (2 Bft)
25.03.2013 19:05 -2,5 C 6,8 C -2,7 C -3,5 C -6,8 C 0,0 C 63 % 68 % 0 % 1017,5 hPa 0,0 l/m 8,9 km/h (2 Bft) O-NO 67 0 min 0,0 UV-I -8,6 C -11,1 C 8,9 km/h (2 Bft)
25.03.2013 19:10 -2,5 C 6,8 C -2,7 C -3,5 C -6,7 C 0,0 C 63 % 68 % 0 % 1017,5 hPa 0,0 l/m 8,4 km/h (2 Bft) O-NO 67 0 min 0,0 UV-I -8,6 C -10,8 C 9,0 km/h (2 Bft)
25.03.2013 19:15 -2,5 C 6,8 C -2,8 C -3,6 C -6,9 C 0,0 C 63 % 68 % 0 % 1017,5 hPa 0,0 l/m 8,5 km/h (2 Bft) O-SO 112 0 min 0,0 UV-I -8,6 C -11,0 C 9,2 km/h (2 Bft)
25.03.2013 19:20 -2,5 C 6,8 C -2,9 C -3,6 C -7,0 C 0,0 C 62 % 67 % 0 % 1017,5 hPa 0,0 l/m 8,5 km/h (2 Bft) O-NO 67 0 min 0,0 UV-I -8,8 C -11,2 C 10,8 km/h (2 Bft)
25.03.2013 19:25 -2,7 C 6,8 C -2,9 C -3,7 C -6,9 C 0,0 C 63 % 68 % 0 % 1017,5 hPa 0,0 l/m 8,4 km/h (2 Bft) O-NO 67 0 min 0,0 UV-I -8,7 C -11,0 C 10,3 km/h (2 Bft)
25.03.2013 19:30 -2,7 C 6,8 C -2,9 C -3,8 C -7,1 C 0,0 C 63 % 68 % 0 % 1017,5 hPa 0,0 l/m 8,4 km/h (2 Bft) O-NO 67 0 min 0,0 UV-I -8,7 C -11,2 C 10,5 km/h (2 Bft)
25.03.2013 19:35 -2,9 C 6,8 C -3,1 C -3,9 C -7,0 C 0,0 C 63 % 68 % 0 % 1017,6 hPa 0,0 l/m 8,0 km/h (2 Bft) O-SO 112 0 min 0,0 UV-I -8,9 C -11,0 C 9,5 km/h (2 Bft)
25.03.2013 19:40 -2,9 C 6,8 C -3,1 C -3,9 C -7,1 C 0,0 C 63 % 68 % 0 % 1017,6 hPa 0,0 l/m 8,0 km/h (2 Bft) O-SO 112 0 min 0,0 UV-I -8,9 C -11,1 C 8,2 km/h (2 Bft)
25.03.2013 19:45 -2,9 C 6,8 C -3,2 C -3,9 C -7,2 C 0,0 C 63 % 68 % 0 % 1017,6 hPa 0,0 l/m 8,2 km/h (2 Bft) O-NO 67 0 min 0,0 UV-I -8,9 C -11,3 C 8,9 km/h (2 Bft)
25.03.2013 19:50 -2,9 C 6,8 C -3,2 C -4,3 C -7,2 C 0,0 C 63 % 68 % 0 % 1017,6 hPa 0,0 l/m 8,2 km/h (2 Bft) O-NO 67 0 min 0,0 UV-I -8,9 C -11,3 C 9,8 km/h (2 Bft)
25.03.2013 19:55 -2,9 C 6,8 C -3,3 C -4,0 C -7,3 C 0,0 C 63 % 68 % 0 % 1017,6 hPa 0,0 l/m 8,4 km/h (2 Bft) O-NO 67 0 min 0,0 UV-I -8,9 C -11,5 C 12,2 km/h (2 Bft)
25.03.2013 20:00 -3,1 C 6,8 C -3,3 C -4,1 C -7,2 C 0,0 C 63 % 68 % 0 % 1017,6 hPa 0,0 l/m 8,0 km/h (2 Bft) NO 45 0 min 0,0 UV-I -9,1 C -11,2 C 8,5 km/h (2 Bft)
25.03.2013 20:05 -3,1 C 6,8 C -3,3 C -4,4 C -7,0 C 0,0 C 64 % 68 % 0 % 1017,6 hPa 0,0 l/m 7,1 km/h (2 Bft) O-NO 67 0 min 0,0 UV-I -8,9 C -10,6 C 6,4 km/h (2 Bft)
25.03.2013 20:10 -3,2 C 6,8 C -3,3 C -4,5 C -7,0 C 0,0 C 64 % 68 % 0 % 1017,6 hPa 0,0 l/m 7,1 km/h (2 Bft) O-NO 67 0 min 0,0 UV-I -9,0 C -10,6 C 11,9 km/h (2 Bft)
25.03.2013 20:15 -3,2 C 6,8 C -3,4 C -4,5 C -7,1 C 0,0 C 63 % 68 % 0 % 1017,6 hPa 0,0 l/m 7,4 km/h (2 Bft) O-NO 67 0 min 0,0 UV-I -9,2 C -10,8 C 8,0 km/h (2 Bft)
25.03.2013 20:20 -3,1 C 6,8 C -3,3 C -4,1 C -7,4 C 0,0 C 63 % 68 % 0 % 1017,6 hPa 0,0 l/m 8,2 km/h (2 Bft) O-SO 112 0 min 0,0 UV-I -9,1 C -11,5 C 11,3 km/h (2 Bft)
25.03.2013 20:25 -3,3 C 6,8 C -3,3 C -4,3 C -7,2 C 0,0 C 63 % 68 % 0 % 1017,6 hPa 0,0 l/m 7,7 km/h (2 Bft) SO 135 0 min 0,0 UV-I -9,3 C -11,1 C 10,9 km/h (2 Bft)
25.03.2013 20:30 -3,3 C 6,8 C -3,3 C -4,6 C -7,2 C 0,0 C 63 % 68 % 0 % 1017,6 hPa 0,0 l/m 7,4 km/h (2 Bft) O-NO 67 0 min 0,0 UV-I -9,3 C -10,9 C 10,1 km/h (2 Bft)
25.03.2013 20:35 -3,3 C 6,8 C -3,5 C -4,6 C -7,2 C 0,0 C 63 % 68 % 0 % 1017,6 hPa 0,0 l/m 7,4 km/h (2 Bft) O-NO 67 0 min 0,0 UV-I -9,3 C -10,9 C 10,0 km/h (2 Bft)
25.03.2013 20:40 -3,3 C 6,8 C -3,5 C -4,6 C -7,1 C 0,0 C 63 % 68 % 0 % 1017,6 hPa 0,0 l/m 7,1 km/h (2 Bft) O 90 0 min 0,0 UV-I -9,3 C -10,7 C 5,6 km/h (1 Bft)
25.03.2013 20:45 -3,4 C 6,8 C -3,6 C -4,7 C -7,2 C 0,0 C 64 % 68 % 0 % 1017,6 hPa 0,0 l/m 6,9 km/h (2 Bft) O-NO 67 0 min 0,0 UV-I -9,2 C -10,7 C 9,2 km/h (2 Bft)
25.03.2013 20:50 -3,3 C 6,8 C -3,6 C -4,6 C -7,3 C 0,0 C 64 % 68 % 0 % 1017,6 hPa 0,0 l/m 6,9 km/h (2 Bft) O-NO 67 0 min 0,0 UV-I -9,1 C -10,8 C 12,6 km/h (3 Bft)
25.03.2013 20:55 -3,3 C 6,9 C -3,5 C -4,3 C -7,7 C 0,0 C 63 % 68 % 0 % 1017,6 hPa 0,0 l/m 8,4 km/h (2 Bft) O-NO 67 0 min 0,0 UV-I -9,3 C -11,9 C 10,6 km/h (2 Bft)
25.03.2013 21:00 -3,3 C 6,9 C -3,5 C -4,8 C -7,7 C 0,0 C 63 % 68 % 0 % 1017,6 hPa 0,0 l/m 8,5 km/h (2 Bft) O-NO 67 0 min 0,0 UV-I -9,3 C -12,0 C 8,4 km/h (2 Bft)
25.03.2013 21:05 -3,5 C 6,9 C -3,7 C -4,5 C -7,9 C 0,0 C 63 % 68 % 0 % 1017,6 hPa 0,0 l/m 8,7 km/h (2 Bft) O-NO 67 0 min 0,0 UV-I -9,5 C -12,3 C 12,9 km/h (3 Bft)
25.03.2013 21:10 -3,5 C 6,9 C -3,7 C -4,6 C -8,1 C 0,0 C 63 % 68 % 0 % 1017,6 hPa 0,0 l/m 9,5 km/h (2 Bft) O-SO 112 0 min 0,0 UV-I -9,5 C -12,8 C 12,4 km/h (3 Bft)
25.03.2013 21:15 -3,6 C 6,9 C -3,7 C -5,1 C -8,1 C 0,0 C 64 % 68 % 0 % 1017,6 hPa 0,0 l/m 9,3 km/h (2 Bft) O 90 0 min 0,0 UV-I -9,4 C -12,7 C 10,1 km/h (2 Bft)
25.03.2013 21:20 -3,6 C 6,9 C -3,7 C -4,6 C -7,8 C 0,0 C 64 % 68 % 0 % 1017,6 hPa 0,0 l/m 8,0 km/h (2 Bft) O-NO 67 0 min 0,0 UV-I -9,4 C -11,9 C 9,3 km/h (2 Bft)
25.03.2013 21:25 -3,6 C 6,9 C -3,7 C -5,0 C -7,8 C 0,0 C 64 % 68 % 0 % 1017,6 hPa 0,0 l/m 8,2 km/h (2 Bft) O-NO 67 0 min 0,0 UV-I -9,4 C -12,0 C 9,3 km/h (2 Bft)
25.03.2013 21:30 -3,7 C 6,9 C -3,7 C -4,7 C -8,0 C 0,0 C 63 % 68 % 0 % 1017,6 hPa 0,0 l/m 8,7 km/h (2 Bft) O-NO 67 0 min 0,0 UV-I -9,7 C -12,4 C 11,1 km/h (2 Bft)
25.03.2013 21:35 -3,7 C 6,9 C -3,7 C -4,8 C -8,3 C 0,0 C 63 % 68 % 0 % 1017,6 hPa 0,0 l/m 9,7 km/h (2 Bft) O-NO 67 0 min 0,0 UV-I -9,7 C -13,1 C 13,2 km/h (3 Bft)
25.03.2013 21:40 -3,7 C 6,9 C -3,9 C -4,8 C -8,2 C 0,0 C 64 % 68 % 0 % 1017,6 hPa 0,0 l/m 9,5 km/h (2 Bft) O-NO 67 0 min 0,0 UV-I -9,5 C -12,9 C 9,5 km/h (2 Bft)
25.03.2013 21:45 -3,7 C 6,9 C -3,9 C -5,2 C -8,2 C 0,0 C 64 % 68 % 0 % 1017,6 hPa 0,0 l/m 9,0 km/h (2 Bft) O-NO 67 0 min 0,0 UV-I -9,5 C -12,8 C 9,8 km/h (2 Bft)
25.03.2013 21:50 -3,7 C 6,9 C -3,9 C -4,8 C -8,3 C 0,0 C 64 % 68 % 0 % 1017,6 hPa 0,0 l/m 9,2 km/h (2 Bft) O-NO 67 0 min 0,0 UV-I -9,5 C -12,9 C 10,3 km/h (2 Bft)
25.03.2013 21:55 -3,7 C 6,9 C -4,0 C -5,2 C -8,3 C 0,0 C 64 % 68 % 0 % 1017,2 hPa 0,0 l/m 9,0 km/h (2 Bft) O-NO 67 0 min 0,0 UV-I -9,5 C -12,9 C 10,8 km/h (2 Bft)
25.03.2013 22:00 -3,9 C 6,9 C -4,0 C -5,4 C -8,3 C 0,0 C 64 % 68 % 0 % 1017,2 hPa 0,0 l/m 8,9 km/h (2 Bft) O-NO 67 0 min 0,0 UV-I -9,7 C -12,8 C 12,6 km/h (3 Bft)
25.03.2013 22:05 -3,9 C 6,9 C -4,1 C -5,4 C -8,3 C 0,0 C 64 % 69 % 0 % 1017,2 hPa 0,0 l/m 8,5 km/h (2 Bft) O 90 0 min 0,0 UV-I -9,7 C -12,7 C 5,6 km/h (1 Bft)
25.03.2013 22:10 -4,0 C 6,9 C -4,1 C -5,4 C -8,2 C 0,0 C 64 % 69 % 0 % 1017,2 hPa 0,0 l/m 7,6 km/h (2 Bft) O-NO 67 0 min 0,0 UV-I -9,8 C -12,2 C 8,2 km/h (2 Bft)
25.03.2013 22:15 -4,0 C 6,9 C -4,1 C -5,3 C -8,0 C 0,0 C 64 % 69 % 0 % 1017,2 hPa 0,0 l/m 7,2 km/h (2 Bft) O-NO 67 0 min 0,0 UV-I -9,8 C -11,8 C 10,3 km/h (2 Bft)
25.03.2013 22:20 -3,9 C 6,9 C -4,2 C -5,3 C -8,0 C 0,0 C 64 % 69 % 0 % 1017,2 hPa 0,0 l/m 7,2 km/h (2 Bft) O-NO 67 0 min 0,0 UV-I -9,7 C -11,8 C 6,6 km/h (2 Bft)
25.03.2013 22:25 -4,1 C 6,9 C -4,1 C -5,4 C -8,0 C 0,0 C 65 % 69 % 0 % 1017,2 hPa 0,0 l/m 7,1 km/h (2 Bft) O-NO 67 0 min 0,0 UV-I -9,7 C -11,8 C 5,6 km/h (1 Bft)
25.03.2013 22:30 -4,1 C 6,9 C -4,3 C -5,4 C -8,0 C 0,0 C 65 % 70 % 0 % 1017,2 hPa 0,0 l/m 6,8 km/h (2 Bft) O-NO 67 0 min 0,0 UV-I -9,7 C -11,6 C 10,8 km/h (2 Bft)
25.03.2013 22:35 -4,1 C 6,9 C -4,3 C -5,3 C -7,7 C 0,0 C 65 % 70 % 0 % 1017,2 hPa 0,0 l/m 6,1 km/h (2 Bft) O-NO 67 0 min 0,0 UV-I -9,7 C -10,9 C 11,1 km/h (2 Bft)
25.03.2013 22:40 -4,1 C 6,9 C -4,3 C -5,4 C -8,0 C 0,0 C 65 % 70 % 0 % 1017,2 hPa 0,0 l/m 6,4 km/h (2 Bft) O 90 0 min 0,0 UV-I -9,7 C -11,4 C 9,0 km/h (2 Bft)
25.03.2013 22:45 -4,1 C 6,9 C -4,4 C -5,4 C -7,9 C 0,0 C 65 % 70 % 0 % 1017,2 hPa 0,0 l/m 6,3 km/h (2 Bft) O 90 0 min 0,0 UV-I -9,7 C -11,3 C 7,6 km/h (2 Bft)
25.03.2013 22:50 -4,1 C 6,9 C -4,4 C -5,3 C -7,8 C 0,0 C 66 % 70 % 0 % 1017,2 hPa 0,0 l/m 6,1 km/h (2 Bft) O-NO 67 0 min 0,0 UV-I -9,5 C -11,0 C 5,8 km/h (2 Bft)
25.03.2013 22:55 -4,3 C 6,9 C -4,5 C -5,4 C -7,7 C 0,0 C 66 % 70 % 0 % 1016,5 hPa 0,0 l/m 5,8 km/h (2 Bft) O 90 0 min 0,0 UV-I -9,7 C -10,8 C 6,3 km/h (2 Bft)
25.03.2013 23:00 -4,3 C 6,9 C -4,5 C -5,4 C -7,7 C 0,0 C 66 % 70 % 0 % 1016,5 hPa 0,0 l/m 5,6 km/h (1 Bft) O-NO 67 0 min 0,0 UV-I -9,7 C -10,7 C 11,3 km/h (2 Bft)
25.03.2013 23:05 -4,4 C 6,9 C -4,5 C -5,5 C -7,7 C 0,0 C 66 % 71 % 0 % 1016,5 hPa 0,0 l/m 5,5 km/h (1 Bft) O-NO 67 0 min 0,0 UV-I -9,8 C -10,6 C 5,0 km/h (1 Bft)
25.03.2013 23:10 -4,3 C 6,9 C -4,5 C -5,5 C -7,8 C 0,0 C 67 % 71 % 0 % 1016,5 hPa 0,0 l/m 5,6 km/h (1 Bft) O-NO 67 0 min 0,0 UV-I -9,5 C -10,8 C 5,1 km/h (1 Bft)
25.03.2013 23:15 -4,5 C 6,9 C -4,5 C -5,6 C -7,9 C 0,0 C 67 % 71 % 0 % 1017,1 hPa 0,0 l/m 5,8 km/h (2 Bft) O-NO 67 0 min 0,0 UV-I -9,7 C -11,0 C 6,0 km/h (2 Bft)
25.03.2013 23:20 -4,5 C 6,9 C -4,5 C -5,6 C -7,9 C 0,0 C 67 % 72 % 0 % 1017,1 hPa 0,0 l/m 5,8 km/h (2 Bft) O-NO 67 0 min 0,0 UV-I -9,7 C -11,0 C 6,3 km/h (2 Bft)
25.03.2013 23:25 -4,5 C 6,9 C -4,7 C -5,7 C -8,0 C 0,0 C 67 % 71 % 0 % 1017,1 hPa 0,0 l/m 6,0 km/h (2 Bft) O-NO 67 0 min 0,0 UV-I -9,7 C -11,2 C 7,6 km/h (2 Bft)
25.03.2013 23:30 -4,5 C 6,9 C -4,7 C -5,8 C -8,3 C 0,0 C 67 % 71 % 0 % 1017,1 hPa 0,0 l/m 6,4 km/h (2 Bft) O-SO 112 0 min 0,0 UV-I -9,7 C -11,8 C 10,5 km/h (2 Bft)
25.03.2013 23:35 -4,5 C 6,9 C -4,7 C -5,8 C -8,3 C 0,0 C 67 % 71 % 0 % 1016,9 hPa 0,0 l/m 6,6 km/h (2 Bft) O-NO 67 0 min 0,0 UV-I -9,7 C -11,9 C 6,0 km/h (2 Bft)
25.03.2013 23:40 -4,5 C 6,9 C -4,7 C -5,8 C -8,4 C 0,0 C 67 % 72 % 0 % 1016,9 hPa 0,0 l/m 6,8 km/h (2 Bft) O-NO 67 0 min 0,0 UV-I -9,7 C -12,1 C 8,4 km/h (2 Bft)
25.03.2013 23:45 -4,5 C 6,9 C -4,8 C -5,7 C -8,2 C 0,0 C 68 % 72 % 0 % 1016,9 hPa 0,0 l/m 6,3 km/h (2 Bft) O-NO 67 0 min 0,0 UV-I -9,5 C -11,6 C 7,2 km/h (2 Bft)
25.03.2013 23:50 -4,7 C 6,9 C -4,8 C -5,9 C -8,2 C 0,0 C 68 % 72 % 0 % 1016,9 hPa 0,0 l/m 6,3 km/h (2 Bft) O-NO 67 0 min 0,0 UV-I -9,7 C -11,6 C 8,4 km/h (2 Bft)
25.03.2013 23:55 -4,7 C 6,9 C -4,8 C -5,9 C -8,4 C 0,0 C 68 % 72 % 0 % 1016,8 hPa 0,0 l/m 6,6 km/h (2 Bft) O-NO 67 0 min 0,0 UV-I -9,7 C -12,0 C 7,7 km/h (2 Bft)
_ Min-Zeit 03:55 08:50 01:40 03:50 05:15 00:00 16:25 12:10 00:00 22:55 - 23:05 - - - 00:00 01:20 06:41 01:10
Minimum _ -6,6 C 6,8 C -6,5 C -8,1 C -11,3 C 0,0 C 52 % 55 % 0 % 1016,5 hPa - 5,5 km/h (1 Bft) - - - 0,0 UV-I -10,6 C -17,0 C 4,2 km/h (1 Bft)
_ Max-Zeit 15:15 00:00 12:05 14:55 15:15 12:35 03:25 02:25 12:35 00:00 00:00 14:00 - - 00:00 12:10 12:35 15:15 14:05
Maximum _ -0,7 C 6,9 C 1,0 C 0,9 C 0,2 C 2,2 C 75 % 78 % 58 % 1021,3 hPa 0,0 l/m 16,3 km/h
O-NO (3 Bft)
- - 0 min 2,0 UV-I -8,2 C -2,8 C 29,6 km/h
NO (5 Bft)
Durchschnitt _ -4,0 C 6,9 C -3,5 C -4,6 C -6,9 C 0,2 C 66 % 68 % 6 % 1018,7 hPa #0,0 l/m 9,2 km/h (2 Bft) O-NO - #0 min. 1,0 UV-I -9,5 C -11,1 C 11,1 km/h (2 Bft)
2013 www.wetterstation-wechselburg.de